Regional Weather Roundup
Issued by NWS Cleveland, OH

Home | Current Version | Previous Version | Graphics & Text | Print | Product List | Glossary On
Versions: 1 2 3 4 5 6 7 8 9 10 11 12 13 14 15 16 17 18 19 20 21 22 23 24 25 26 27 28 29 30 31 32 33 34 35 36 37 38 39 40 41 42 43 44 45 46 47 48 49 50
000
ASUS41 KCLE 271400
RWRCLE
OHIO REGIONAL WEATHER ROUNDUP
NATIONAL WEATHER SERVICE WILMINGTON, OH
1000 AM EDT TUE SEP 27 2016

NOTE: "FAIR" INDICATES FEW OR NO CLOUDS BELOW 12,000 FEET WITH NO
SIGNIFICANT WEATHER AND/OR OBSTRUCTIONS TO VISIBILITY.

OHZ001>008-015>018-024>027-034-035-043-044-271500-
   NORTHWEST OHIO

CITY           SKY/WX    TMP DP  RH WIND       PRES   REMARKS
DEFIANCE       FAIR      59  42  53 SW9       29.85F
FINDLAY        FAIR      61  42  49 SW17      29.87F
TOLEDO EXPRESS FAIR      57  45  64 SW10      29.83F
TOLEDO EXEC    FAIR      59  44  57 SW14      29.85F
LIMA           FAIR      60  45  57 SW12      29.90S
$$

OHZ009>014-019>023-028>033-038-089-271500-
   NORTHEAST OHIO

CITY           SKY/WX    TMP DP  RH WIND       PRES   REMARKS
CLE-HOPKINS    FAIR      61  42  49 S12       29.89F
CLE-LAKEFRONT  FAIR      63  43  48 S17       29.86S
CUY CO. ARPT   SUNNY     63  43  48 SW16      29.87F
LORAIN-ELYRIA  FAIR      60  42  51 SW16      29.88F
ASHTABULA      FAIR      57  47  69 SW9       29.89F
AKRON-CANTON   FAIR      58  46  64 SW10      29.93S
WOOSTER        NOT AVBL
MANSFIELD      FAIR      60  44  55 SW12G20   29.92S
YOUNGSTOWN     FAIR      56  48  74 S9        29.93R
$$

OHZ042-051>053-060>062-070>072-077>081-271500-
  SOUTHWEST OHIO

CITY           SKY/WX    TMP DP  RH WIND       PRES   REMARKS
CINC-COVINGTON FAIR      58  50  75 SW5       30.00S
CINC-LUNKEN    FAIR      58  53  84 S6        30.01S
HAMILTON       FAIR      59  50  72 W5        30.00S
DAYTON         NOT AVBL
WRIGHT-PAT AFB FAIR      60  49  67 SW12      29.96S
DAYTON GENERAL FAIR      58  47  66 SW9       29.97F
WILMINGTON     FAIR      59  50  72 SW7       29.99S
$$

OHZ036-037-039>041-045>050-054>059-063>069-073>076-082>088-271500-
  CENTRAL AND SOUTHEAST OHIO

CITY           SKY/WX    TMP DP  RH WIND       PRES   REMARKS
COLUMBUS       FAIR      56  50  80 S8        29.96S
OSU AIRPORT    FAIR      60  49  66 S9        29.96S
BOLTON FIELD   SUNNY     57  52  82 SW8       29.97S
RICKENBACK AFB NOT AVBL
NEWARK         FAIR      59  50  72 S6        29.96S
MARION         FAIR      60  45  57 SW14      29.93S
LANCASTER      FAIR      60  50  69 SW7       29.98S
ZANESVILLE     FAIR      57  51  80 S9        29.98S
NEW PHILLY     FAIR      58  51  78 SW3       29.96S
$$




USA.gov is the U.S. government's official web portal to all federal, state and local government web resources and services.